Home > Weather > Kfar Saba > Past weeks

Flag for Israel Weather for the Past 2 Weeks in Kfar Saba, Israel

Now
63 °F

Scattered clouds.


Feels Like: 63 °F
Forecast: 50 / 61 °F
Wind: 9 mph from West

Location: Dov Airport

Current Time: Feb 10, 2016 at 3:25:25 PM

Latest Report: Feb 10, 2016 at 2:50 PM


Visibility: N/A

Pressure: 30.07 "Hg

Humidity: 59%

Dew point: 48 °F

Location of Kfar SabaLocation

Historic Weather in Kfar Saba — Graph

°F

Kfar Saba Temperature Yesterday

Maximum temperature yesterday: 68 °F (at 1:50 PM)
Minimum temperature yesterday: 50 °F (at 5:50 AM)
Average temperature yesterday: 59 °F

High & Low Weather Summary for the Past Weeks

 TemperatureHumidityPressure
High75 °F (Feb 4, 12:50 PM)94% (Feb 8, 6:50 AM)30.42 "Hg (Feb 8, 6:50 AM)
Low39 °F (Jan 28, 5:50 AM)22% (Feb 4, 12:50 PM)29.89 "Hg (Feb 7, 5:50 AM)
Average56 °F65%30.17 "Hg
* Reported Jan 26 1:50 PM — Feb 10 1:50 PM, Kfar Saba, Weather by CustomWeather, © 2016

Note: Actual official high and low records may vary slightly from our data, if they occured in-between our weather recording intervals... More about our weather records

Advertising

Kfar Saba Weather History for the Previous 24 Hours

 ConditionsComfort  
Time TempWeatherWind HumidityBarometerVisibility
1:50 PM
Wed, Feb 10
63 °FPassing clouds.13 mph68%30.07 "HgN/A
12:50 PM63 °FScattered clouds.15 mph68%30.07 "HgN/A
11:50 AM63 °FScattered clouds.8 mph73%30.07 "HgN/A
10:50 AM61 °FPassing clouds.10 mph68%30.07 "HgN/A
9:50 AM61 °FPassing clouds.2 mph55%30.07 "HgN/A
8:50 AM59 °FPassing clouds.1 mph55%30.07 "HgN/A
7:50 AM54 °FSunny.1 mph72%30.07 "Hg10 mi
6:50 AM50 °FSunny.2 mph76%30.04 "Hg10 mi
5:50 AM50 °FClear.10 mph71%30.04 "Hg10 mi
10:50 PM
Tue, Feb 9
52 °FClear.6 mph72%30.09 "Hg10 mi
9:50 PM54 °FClear.7 mph67%30.09 "Hg10 mi
8:50 PM54 °FClear.3 mph67%30.09 "Hg10 mi
7:50 PM57 °FPassing clouds.9 mph51%30.12 "HgN/A
6:50 PM59 °FPassing clouds.9 mph48%30.12 "HgN/A
5:50 PM59 °FPassing clouds.9 mph55%30.12 "HgN/A
4:50 PM64 °FScattered clouds.6 mph37%30.12 "HgN/A
3:50 PM64 °FScattered clouds.10 mph43%30.12 "HgN/A
Weather by CustomWeather, © 2016

See weather overviewHow to use our weather pages